Location: Auckland
(36.8500°S, 174.7800°E)
Time: 20:31:37
(UTC+13:00)

ISS - Visible Passes

Search period start: 18 October 2017 00:00
Search period end: 28 October 2017 00:00
Orbit: 401 x 408 km, 51.6° (Epoch: 19 October)

Date Brightness Start Highest point End Pass type
(mag) Time Alt. Az. Time Alt. Az. Time Alt. Az.
18 Oct -1.6 06:02:43 10° SSW 06:05:38 27° SSE 06:08:31 10° E visible
19 Oct -0.9 05:10:50 10° SSW 05:13:10 17° SSE 05:15:30 10° ESE visible
20 Oct -0.6 04:19:12 10° S 04:20:37 12° SSE 04:22:02 10° SE visible
20 Oct -3.2 05:54:21 10° SW 05:57:40 61° SE 06:00:58 10° ENE visible
21 Oct -2.0 05:02:15 10° SSW 05:05:19 32° SSE 05:08:21 10° E visible
22 Oct -1.1 04:11:17 15° S 04:12:51 20° SSE 04:15:24 10° ESE visible
22 Oct -3.5 05:46:17 10° WSW 05:49:31 47° NW 05:52:42 10° NNE visible
23 Oct -3.8 04:54:56 19° SW 04:57:14 79° SE 05:00:33 10° NE visible
23 Oct -3.2 21:31:47 10° NW 21:34:17 48° NW 21:34:17 48° NW visible
24 Oct -1.6 04:06:30 23° E 04:06:30 23° E 04:08:01 10° ENE visible
24 Oct -2.3 05:39:18 12° W 05:41:08 18° NW 05:43:27 10° N visible
24 Oct -3.4 20:39:41 10° NNW 20:42:51 41° NE 20:46:02 10° ESE visible
24 Oct -1.2 22:16:46 10° W 22:19:09 21° SW 22:19:09 21° SW visible
25 Oct -1.4 04:51:30 13° NNE 04:51:30 13° NNE 04:52:01 10° NNE visible
25 Oct -2.2 21:23:50 10° WNW 21:26:57 36° SW 21:30:06 10° SE visible
26 Oct -3.5 20:31:13 10° NW 20:34:32 70° SW 20:37:53 10° SE visible
26 Oct -0.6 22:09:52 10° SW 22:11:31 13° SSW 22:13:12 10° S visible
27 Oct -0.9 21:16:26 10° WSW 21:18:53 19° SSW 21:21:22 10° SSE visible
